Weather History for MMLO - April, 2012

Change the Weather History Date:

Monday, April 9, 2012

  Actual Average Record
Temperature  
Mean Temperature 71 °F -  
Max Temperature 89 °F 85 °F 96 °F (2011)
Min Temperature 53 °F 52 °F 51 °F (1997)
Cooling Degree Days 6    
Growing Degree Days 21 (Base 50)    
Moisture  
Dew Point 44 °F    
Average Humidity 42    
Maximum Humidity 67    
Minimum Humidity 16    
Precipitation  
Precipitation 0.00 in - - ()
Sea Level Pressure  
Sea Level Pressure 30.12 in    
Wind  
Wind Speed 5 mph ()    
Max Wind Speed 17 mph    
Max Gust Speed -    
Visibility 8.5 miles    
Events      
Averages and records for this station are not official NWS values.
T = Trace of Precipitation, MM = Missing Value Source: Averaged Metar Reports

Daily Weather History Graph

Daily Weather History Graph

Search for Another Location

Airport or City:

Trip Planner

Search our weather history database for the weather conditions in past years. The results will help you decide how hot, cold, wet, or windy it might be!

Date:

Astronomy

Apr. 09, 2012 Rise Set
Actual Time 7:31 AM CDT 8:03 PM CDT
Civil Twilight 7:09 AM CDT 8:25 PM CDT
Nautical Twilight 6:42 AM CDT 8:52 PM CDT
Astronomical Twilight 6:16 AM CDT 9:18 PM CDT
Moon 11:31 PM CDT (4/9) 9:48 AM CDT (4/9)
Length of Visible Light 13h 16m
Length of Day
12h 31m
Waning Gibbous, 88% of the Moon is Illuminated
Apr 9
Waning Gibbous
Apr 13
Last Quarter
Apr 21
New
Apr 29
First Quarter
May 5
Full

Hourly Weather History & Observations

Time (CDT) Temp. Dew Point Humidity Pressure Visibility Wind Dir Wind Speed Gust Speed Precip Events Conditions
12:49 AM 62.6 °F 46.4 °F 55% 29.86 in 8.0 mi ENE 6.9 mph - N/A   Clear
1:50 AM 62.6 °F 46.4 °F 55% 30.30 in 8.0 mi ENE 9.2 mph - N/A   Clear
2:51 AM 60.8 °F 46.4 °F 59% 30.30 in 8.0 mi NE 8.1 mph - N/A   Clear
3:50 AM 60.8 °F 46.4 °F 59% 30.11 in 8.0 mi Calm Calm - N/A   Clear
4:49 AM 59.0 °F 48.2 °F 67% 30.28 in 8.0 mi East 8.1 mph - N/A   Clear
5:48 AM 59.0 °F 46.4 °F 63% 30.26 in 8.0 mi ENE 10.4 mph - N/A   Clear
6:50 AM 55.4 °F 41.0 °F 58% 29.90 in 8.0 mi Calm Calm - N/A   Clear
7:50 AM 53.6 °F 42.8 °F 67% 30.30 in 7.0 mi SW 6.9 mph - N/A   Clear
8:48 AM 62.6 °F 48.2 °F 59% 30.32 in 7.0 mi Calm Calm - N/A   Clear
9:43 AM 71.6 °F 48.2 °F 43% 29.92 in 8.0 mi Calm Calm - N/A   Clear
10:40 AM 75.2 °F 46.4 °F 36% 30.32 in 8.0 mi Calm Calm - N/A   Clear
11:55 AM 80.6 °F 46.4 °F 30% 30.29 in 9.0 mi SE 8.1 mph - N/A   Partly Cloudy
12:41 PM 82.4 °F 46.4 °F 28% 29.86 in 9.0 mi Calm Calm - N/A   Partly Cloudy
1:48 PM 86.0 °F 44.6 °F 23% 30.27 in 10.0 mi SSE 6.9 mph - N/A   Scattered Clouds
2:43 PM 89.6 °F 41.0 °F 18% 30.24 in 10.0 mi Calm Calm - N/A   Scattered Clouds
3:44 PM 89.6 °F 37.4 °F 16% 29.71 in 10.0 mi Calm Calm - N/A   Scattered Clouds
4:48 PM 89.6 °F 41.0 °F 18% 30.15 in 10.0 mi NNE 9.2 mph - N/A   Scattered Clouds
6:48 PM 80.6 °F 37.4 °F 21% 29.73 in 10.0 mi South 4.6 mph - N/A   Scattered Clouds
7:42 PM 75.2 °F 46.4 °F 36% 30.18 in 10.0 mi North 17.3 mph - N/A   Scattered Clouds
8:51 PM 68.0 °F 44.6 °F 43% 30.18 in 8.0 mi NE 17.3 mph - N/A   Scattered Clouds
9:45 PM 69.8 °F 41.0 °F 35% 29.80 in 8.0 mi NNE 11.5 mph - N/A   Scattered Clouds
10:43 PM 69.8 °F 41.0 °F 35% 30.24 in 8.0 mi NE 8.1 mph - N/A   Scattered Clouds
11:42 PM 66.2 °F 42.8 °F 43% 30.24 in 8.0 mi ESE 8.1 mph - N/A   Scattered Clouds